Weather History for Akron Canton, OH

Change the Weather History Date:

Monday, June 9, 2014

  Actual Average Record
Temperature  
Mean Temperature 67 °F 66 °F  
Max Temperature 77 °F 76 °F 93 °F (1914)
Min Temperature 57 °F 56 °F 39 °F (1913)
Degree Days  
Heating Degree Days 0 2  
Month to date heating degree days 12 27  
Since 1 June heating degree days 12 27  
Since 1 July heating degree days 6419 6128  
Cooling Degree Days 2 3  
Month to date cooling degree days 24 26  
Year to date cooling degree days 100 68  
Since 1 June cooling degree days 24 26  
Growing Degree Days 17 (Base 50)    
Moisture  
Dew Point 57 °F    
Average Humidity 68    
Maximum Humidity 87    
Minimum Humidity 48    
Precipitation  
Precipitation 0.00 in 0.12 in 1.50 in (1950)
Month to date precipitation 2.25 1.16  
Year to date precipitation 18.88 16.89  
Snow  
Snow 0.00 in 0.00 in - ()
Month to date snowfall 0.0 0.0  
Since 1 June snowfall 0.0 0.0  
Since 1 July snowfall 69.9 47.5  
Snow Depth 0.00 in    
Sea Level Pressure  
Sea Level Pressure 29.95 in    
Wind  
Wind Speed 6 mph (North)    
Max Wind Speed 12 mph    
Max Gust Speed 12 mph    
Visibility 9 miles    
Events      
T = Trace of Precipitation, MM = Missing Value Source: NWS Daily Summary

Daily Weather History Graph

Daily Weather History Graph

Search for Another Location

Airport:

Trip Planner

Search our weather history database for the weather conditions in past years. The results will help you decide how hot, cold, wet, or windy it might be!

Date:

Astronomy

Jun. 09, 2014 Rise Set
Actual Time 5:53 AM EDT 8:56 PM EDT
Civil Twilight 5:20 AM EDT 9:29 PM EDT
Nautical Twilight 4:38 AM EDT 10:12 PM EDT
Astronomical Twilight 3:48 AM EDT 11:02 PM EDT
Moon 5:14 PM EDT (6/9) 3:21 AM EDT (6/9)
Length of Visible Light 16h 09m
Length of Day
15h 02m
Waxing Gibbous, 85% of the Moon is Illuminated
Jun 9
Waxing Gibbous
Jun 13
Full
Jun 19
Last Quarter
Jun 27
New
Jul 5
First Quarter

Hourly Weather History & Observations

Time (EDT) Temp. Dew Point Humidity Pressure Visibility Wind Dir Wind Speed Gust Speed Precip Events Conditions
12:51 AM 57.9 °F 54.0 °F 87% 29.96 in 10.0 mi North 3.5 mph - N/A   Clear
1:51 AM 59.0 °F 55.0 °F 87% 29.96 in 10.0 mi Calm Calm - N/A   Overcast
2:51 AM 59.0 °F 55.0 °F 87% 29.96 in 9.0 mi North 5.8 mph - N/A   Overcast
3:51 AM 59.0 °F 55.0 °F 87% 29.96 in 8.0 mi North 8.1 mph - N/A   Overcast
4:51 AM 59.0 °F 55.0 °F 87% 29.94 in 5.0 mi North 8.1 mph - N/A   Overcast
5:51 AM 57.9 °F 54.0 °F 87% 29.94 in 6.0 mi North 5.8 mph - N/A   Scattered Clouds
6:51 AM 57.9 °F 54.0 °F 87% 29.96 in 8.0 mi North 5.8 mph - N/A   Mostly Cloudy
7:51 AM 60.1 °F 55.0 °F 83% 29.97 in 8.0 mi North 8.1 mph - N/A   Mostly Cloudy
8:51 AM 64.0 °F 55.0 °F 73% 29.98 in 10.0 mi North 5.8 mph - N/A   Mostly Cloudy
9:51 AM 68.0 °F 57.9 °F 70% 29.98 in 10.0 mi North 8.1 mph - N/A   Mostly Cloudy
10:51 AM 70.0 °F 57.9 °F 65% 29.97 in 10.0 mi NNE 5.8 mph - N/A   Mostly Cloudy
11:51 AM 72.0 °F 57.9 °F 61% 29.96 in 10.0 mi NE 8.1 mph - N/A   Mostly Cloudy
12:51 PM 73.0 °F 57.9 °F 59% 29.96 in 10.0 mi NNE 6.9 mph - N/A   Mostly Cloudy
1:51 PM 72.0 °F 59.0 °F 64% 29.96 in 10.0 mi Variable 4.6 mph - N/A   Mostly Cloudy
3:51 PM 77.0 °F 57.2 °F 50% 29.94 in 10.0 mi NNW 11.5 mph - N/A   Mostly Cloudy
4:51 PM 76.8 °F 59.5 °F 55% 29.90 in 10.0 mi North 10.4 mph - N/A   Mostly Cloudy
5:51 PM 73.0 °F 57.4 °F 58% 29.91 in 10.0 mi North 5.8 mph - N/A   Mostly Cloudy
6:51 PM 74.8 °F 57.4 °F 54% 29.91 in 10.0 mi NNW 8.1 mph - N/A   Mostly Cloudy
7:51 PM 72.7 °F 58.8 °F 62% 29.92 in 10.0 mi NNW 8.1 mph - N/A   Mostly Cloudy
8:51 PM 69.8 °F 57.7 °F 65% 29.92 in 10.0 mi North 5.8 mph - N/A   Mostly Cloudy
9:51 PM 68.9 °F 59.7 °F 72% 29.93 in 10.0 mi North 5.8 mph - N/A   Mostly Cloudy
10:51 PM 67.6 °F 59.4 °F 75% 29.94 in 10.0 mi North 5.8 mph - N/A   Mostly Cloudy
11:51 PM 66.0 °F 57.9 °F 75% 29.94 in 10.0 mi Calm Calm - N/A   Overcast